sat.trackr.live / text

‹ back to catalog

SBIRS GEO-5 (USA 315)

NORAD 48618 · 2021-042A

PAYLOAD ACTIVE UNKNOWN

§ Identity

Operator
Country
US
Launch date
2021-05-18
Launch site
AFETR
Launch vehicle
Mass (kg)
RCS (m²)

Purposes: comms

External: N2YO · Heavens-Above · Gunter

§ Orbital elements

Epoch: 2026-09-19T21:06:19.132704Z

Period
1,436.10 min
Inclination
4.9925°
Eccentricity
0.0001821
Mean motion
1.00271917 rev/d
Perigee alt
35,778.9 km
Apogee alt
35,794.2 km
Semi-major
42,164.7 km
B*
0.0000e+0
RAAN
329.8613°
Arg perigee
209.8691°
Mean anomaly
229.4311°
Rev number
1,972

§ Raw data

SBIRS GEO-5 (USA 315)1 48618U 21042A   26262.87938811 -.00000270  00000+0  00000+0 0  99972 48618   4.9925 329.8613 0001821 209.8691 229.4311  1.00271917 19726

JSON: /api/v1/satellites/48618 · /tle

For live sub-satellite position, see the globe view (requires WebGL).

§ Visibility from observer

Set your observer location to see the next 7 days of passes ≥ 10°. The values pass through the URL so the page stays shareable.

No JS? Fill the form by hand. The geolocation button needs JavaScript.